Location: Kumla
(59.1265°N, 15.1401°E)
Time: 00:07:35
(UTC+01:00)

Vanguard 1 Rocket - Pass Details

Date: 08 December 2023
Orbit: 653 x 4219 km, 34.3° (Epoch: 01 March)

Event Time Altitude Azimuth Distance (km) Brightness Sun altitude
Exits shadow 02:21:28 - 178° (S) 7,429 11.7 -44.9°
Reaches altitude 10° 02:23:39 10° 174° (S) 7,161 11.7 -44.7°
Maximum altitude 02:34:13 15° 147° (SSE) 6,093 11.5 -43.6°
Drops below altitude 10° 02:42:57 10° 119° (ESE) 5,804 11.7 -42.6°
Sets 02:49:21 0° 99° (E) 6,130 12.2 -41.9°
